EW5637 Weather Reports


Display with metric or nautical units.
time (UTC)temp
F
wind
direction
speed
MPH
gust
MPH
rain 1hr
in
rain 24hr
in
rain mn
in
humidity
%
barometer
mb
20260504193054 73 172 6.0 14.0 0.00 0.00 0.00 41 1009.4
20260504192545 73 232 4.0 20.0 0.00 0.00 0.00 48 1009.5
20260504192041 73 188 7.0 20.0 0.00 0.00 0.00 43 1009.6
20260504191551 73 184 8.0 17.0 0.00 0.00 0.00 43 1009.6
20260504191042 73 155 4.0 11.0 0.00 0.00 0.00 47 1009.7
20260504190543 72 190 5.0 13.0 0.00 0.00 0.00 44 1009.7
20260504190116 72 182 6.0 14.0 0.00 0.00 0.00 45 1009.8
20260504185540 72 241 3.0 16.0 0.00 0.00 0.00 46 1009.9
20260504185040 72 205 7.0 16.0 0.00 0.00 0.00 47 1010.1
20260504184552 71 202 8.0 16.0 0.00 0.00 0.00 41 1010.2
20260504184041 72 235 4.0 17.0 0.00 0.00 0.00 45 1010.2
20260504183541 72 175 8.0 18.0 0.00 0.00 0.00 43 1010.3
20260504183051 71 153 4.0 19.0 0.00 0.00 0.00 49 1010.3
20260504182540 71 177 9.0 19.0 0.00 0.00 0.00 45 1010.4
20260504182042 71 168 9.0 19.0 0.00 0.00 0.00 45 1010.6
20260504181554 70 179 3.0 11.0 0.00 0.00 0.00 47 1010.7
20260504181042 70 140 6.0 18.0 0.00 0.00 0.00 43 1010.8
20260504180544 70 207 9.0 22.0 0.00 0.00 0.00 45 1010.9
20260504180052 70 170 9.0 22.0 0.00 0.00 0.00 46 1011.0
20260504175543 70 172 8.0 16.0 0.00 0.00 0.00 47 1010.9
20260504175041 70 151 5.0 18.0 0.00 0.00 0.00 44 1011.0
20260504174558 69 221 9.0 18.0 0.00 0.00 0.00 45 1011.1
20260504174041 69 205 2.0 18.0 0.00 0.00 0.00 46 1011.1
20260504173541 69 207 8.0 18.0 0.00 0.00 0.00 49 1011.2
20260504173052 69 194 7.0 14.0 0.00 0.00 0.00 50 1011.3
20260504172540 69 196 6.0 15.0 0.00 0.00 0.00 42 1011.3
20260504172040 69 182 6.0 15.0 0.00 0.00 0.00 46 1011.4
20260504171552 69 207 4.0 16.0 0.00 0.00 0.00 47 1011.4
20260504171043 69 223 7.0 16.0 0.00 0.00 0.00 44 1011.5
20260504170542 68 249 4.0 10.0 0.00 0.00 0.00 45 1011.3
20260504151041 65 0 6.0 15.0 0.00 0.00 0.00 48 1012.7
20260504150540 65 209 7.0 15.0 0.00 0.00 0.00 46 1012.9
20260504141041 61 209 5.0 12.0 0.00 0.00 0.00 52 1013.0
20260504140541 60 240 2.0 10.0 0.00 0.00 0.00 53 1012.9
20260504130542 53 90 4.0 8.0 0.00 0.00 0.00 66 1013.4
20260504110544 40 0 0.0 0.0 0.00 0.00 0.00 88 1013.7
20260504100540 35 0 0.0 0.0 0.00 0.00 0.00 88 1013.9
20260504081559 35 0 0.0 0.0 0.00 0.00 0.00 88 1014.3
20260504081041 35 0 0.0 1.0 0.00 0.00 0.00 87 1014.2
20260504080541 35 0 0.0 2.0 0.00 0.00 0.00 87 1014.3
20260504060106 36 0 0.0 0.0 0.00 0.00 0.00 86 1014.7
20260504050544 35 266 1.0 2.0 0.00 0.00 0.00 85 1014.6
20260504050111 36 0 0.0 3.0 0.00 0.00 0.00 84 1014.6
20260504045541 36 0 1.0 3.0 0.00 0.00 0.00 84 1014.7
20260504045044 36 266 0.0 1.0 0.00 0.00 0.00 85 1014.7
20260504044545 36 0 0.0 1.0 0.00 0.00 0.00 85 1014.8
20260504044038 36 0 0.0 2.0 0.00 0.00 0.00 83 1014.9
20260504043541 37 0 0.0 2.0 0.00 0.00 0.00 84 1014.6
20260504043101 37 266 0.0 0.0 0.00 0.00 0.00 85 1014.6
20260504042538 37 0 0.0 0.0 0.00 0.00 0.00 85 1014.7
20260504042041 37 0 0.0 1.0 0.00 0.00 0.00 84 1014.7
20260504041550 37 0 0.0 3.0 0.00 0.00 0.00 84 1014.6
20260504041041 37 0 0.0 3.0 0.00 0.00 0.00 84 1014.6
20260504040541 37 266 2.0 3.0 0.00 0.00 0.00 84 1014.7
20260504040053 38 266 0.0 2.0 0.00 0.00 0.00 84 1014.8
20260504035541 38 266 1.0 3.0 0.00 0.00 0.00 84 1014.9
20260504035040 37 266 1.0 3.0 0.00 0.00 0.00 83 1014.7
20260504034551 37 264 0.0 0.0 0.00 0.00 0.00 84 1014.7
20260504034041 37 0 0.0 0.0 0.00 0.00 0.00 83 1014.7
20260504033538 37 0 0.0 0.0 0.00 0.00 0.00 82 1014.7
20260504033056 38 0 0.0 0.0 0.00 0.00 0.00 82 1014.7
20260504032538 38 0 0.0 0.0 0.00 0.00 0.00 81 1014.6
20260504032042 38 0 0.0 0.0 0.00 0.00 0.00 81 1014.7
20260504031557 38 0 0.0 0.0 0.00 0.00 0.00 81 1014.6
20260504031041 38 0 0.0 0.0 0.00 0.00 0.00 81 1014.6
20260504030540 39 0 0.0 0.0 0.00 0.00 0.00 80 1014.6
20260504030051 39 0 0.0 0.0 0.00 0.00 0.00 80 1014.4
20260504025542 39 0 0.0 2.0 0.00 0.00 0.00 80 1014.4
20260504025039 40 0 0.0 2.0 0.00 0.00 0.00 80 1014.4
20260504024550 40 0 0.0 2.0 0.00 0.00 0.00 79 1014.5
20260504024040 40 0 1.0 3.0 0.00 0.00 0.00 79 1014.5
20260504023539 40 265 0.0 3.0 0.00 0.00 0.00 78 1014.4
20260504023045 40 0 2.0 3.0 0.00 0.00 0.00 78 1014.3
20260504022539 41 265 2.0 3.0 0.00 0.00 0.00 76 1014.3
20260504022038 42 0 0.0 0.0 0.00 0.00 0.00 77 1014.4
20260504021545 42 0 0.0 0.0 0.00 0.00 0.00 77 1014.4
20260504021041 42 0 0.0 2.0 0.00 0.00 0.00 77 1014.4
20260504020538 42 0 0.0 2.0 0.00 0.00 0.00 76 1014.3
20260504020046 42 264 1.0 2.0 0.00 0.00 0.00 76 1014.3
20260504015538 42 0 0.0 3.0 0.00 0.00 0.00 75 1014.2
20260504015041 42 264 1.0 4.0 0.00 0.00 0.00 75 1014.2
20260504014557 42 265 2.0 4.0 0.00 0.00 0.00 75 1014.2
20260504014044 43 263 2.0 4.0 0.00 0.00 0.00 75 1014.2
20260504013542 43 259 1.0 3.0 0.00 0.00 0.00 76 1014.2
20260504013048 43 0 0.0 2.0 0.00 0.00 0.00 75 1014.1
20260504012543 43 0 0.0 4.0 0.00 0.00 0.00 74 1014.2
20260504012041 43 259 1.0 4.0 0.00 0.00 0.00 74 1014.1
20260504011549 43 259 3.0 4.0 0.00 0.00 0.00 72 1014.0
20260504011037 44 259 2.0 4.0 0.00 0.00 0.00 72 1014.0
20260504010541 44 259 1.0 3.0 0.00 0.00 0.00 72 1014.0
20260504010057 44 259 1.0 3.0 0.00 0.00 0.00 71 1014.0
20260504005542 45 259 2.0 4.0 0.00 0.00 0.00 69 1014.1
20260504005042 46 259 1.0 4.0 0.00 0.00 0.00 67 1014.0
20260504004545 46 259 1.0 4.0 0.00 0.00 0.00 65 1013.9
20260504004044 47 259 0.0 2.0 0.00 0.00 0.00 64 1013.9
20260504003538 47 0 0.0 3.0 0.00 0.00 0.00 64 1013.8
20260504003050 48 0 0.0 3.0 0.00 0.00 0.00 60 1013.8
20260504002538 49 0 0.0 0.0 0.00 0.00 0.00 59 1013.7
20260504002038 50 0 0.0 0.0 0.00 0.00 0.00 56 1013.7
20260504001559 51 0 0.0 0.0 0.00 0.00 0.00 56 1013.7
20260504001040 52 0 0.0 0.0 0.00 0.00 0.00 53 1013.7
20260504000540 53 0 0.0 0.0 0.00 0.00 0.00 49 1013.5
20260504000056 54 0 0.0 3.0 0.00 0.00 0.00 48 1013.5
20260503235542 55 0 0.0 3.0 0.00 0.00 0.00 46 1013.5
20260503235041 56 258 0.0 4.0 0.00 0.00 0.00 42 1013.5
20260503234550 57 257 0.0 7.0 0.00 0.00 0.00 41 1013.5
20260503234038 57 240 2.0 8.0 0.00 0.00 0.00 40 1013.4
20260503233541 57 267 1.0 9.0 0.00 0.00 0.00 39 1013.3
20260503233101 58 258 4.0 11.0 0.00 0.00 0.00 38 1013.4
20260503232540 58 235 5.0 13.0 0.00 0.00 0.00 39 1013.4
20260503232037 58 281 7.0 13.0 0.00 0.00 0.00 37 1013.2
20260503231552 58 296 5.0 13.0 0.00 0.00 0.00 37 1013.1
20260503231042 59 262 5.0 12.0 0.00 0.00 0.00 37 1013.1
20260503230539 59 246 2.0 9.0 0.00 0.00 0.00 38 1013.0
20260503230053 59 294 0.0 12.0 0.00 0.00 0.00 38 1013.0
20260503225537 59 265 5.0 13.0 0.00 0.00 0.00 37 1013.1
20260503225041 59 252 7.0 15.0 0.00 0.00 0.00 37 1013.1
20260503224550 59 281 8.0 15.0 0.00 0.00 0.00 38 1013.1
20260503224042 59 302 6.0 14.0 0.00 0.00 0.00 39 1013.0
20260503223540 59 294 8.0 14.0 0.00 0.00 0.00 39 1013.1
20260503223047 60 281 6.0 12.0 0.00 0.00 0.00 37 1013.3
20260503222541 60 259 4.0 15.0 0.00 0.00 0.00 37 1013.2
20260503222038 59 236 5.0 15.0 0.00 0.00 0.00 38 1013.2
20260503221557 59 246 6.0 14.0 0.00 0.00 0.00 39 1013.1
20260503221038 59 271 8.0 15.0 0.00 0.00 0.00 42 1013.3
20260503220541 59 295 8.0 15.0 0.00 0.00 0.00 39 1013.3
20260503220057 59 252 9.0 18.0 0.00 0.00 0.00 40 1013.3
20260503215537 58 271 8.0 18.0 0.00 0.00 0.00 40 1013.2
20260503215040 58 290 9.0 14.0 0.00 0.00 0.00 39 1013.2
20260503214554 59 240 4.0 16.0 0.00 0.00 0.00 37 1013.3
20260503214040 59 259 9.0 16.0 0.00 0.00 0.00 37 1013.3
20260503213539 59 281 7.0 13.0 0.00 0.00 0.00 40 1013.2
20260503213054 59 269 7.0 21.0 0.00 0.00 0.00 39 1013.3
20260503212537 59 267 8.0 24.0 0.00 0.00 0.00 39 1013.2
20260503212042 59 261 11.0 24.0 0.00 0.00 0.00 37 1013.2
20260503211550 59 279 12.0 24.0 0.00 0.00 0.00 38 1013.1
20260503211040 59 303 6.0 19.0 0.00 0.00 0.00 40 1013.2
20260503210540 59 288 9.0 19.0 0.00 0.00 0.00 40 1013.3
20260503210056 59 277 7.0 13.0 0.00 0.00 0.00 38 1013.1
20260503205541 59 273 5.0 13.0 0.00 0.00 0.00 40 1013.1
20260503205038 59 294 7.0 13.0 0.00 0.00 0.00 39 1013.3
20260503204606 59 210 7.0 15.0 0.00 0.00 0.00 39 1013.1
20260503204040 60 311 7.0 17.0 0.00 0.00 0.00 36 1013.3
20260503203541 59 246 5.0 17.0 0.00 0.00 0.00 40 1013.3
20260503203056 60 278 11.0 17.0 0.00 0.00 0.00 38 1013.3
20260503202541 60 263 6.0 23.0 0.00 0.00 0.00 38 1013.4
20260503202041 59 283 7.0 23.0 0.00 0.00 0.00 43 1013.4
20260503201545 59 286 13.0 20.0 0.00 0.00 0.00 40 1013.4
20260503201038 58 286 10.0 17.0 0.00 0.00 0.00 41 1013.4
20260503200540 57 275 12.0 20.0 0.00 0.00 0.00 42 1013.3
20260503200046 58 306 10.0 20.0 0.00 0.00 0.00 42 1013.5
20260503195540 57 288 10.0 18.0 0.00 0.00 0.00 41 1013.6
20260503195037 58 309 11.0 17.0 0.00 0.00 0.00 40 1013.6
20260503194607 58 319 9.0 16.0 0.00 0.00 0.00 43 1013.6
20260503194041 57 315 12.0 18.0 0.00 0.00 0.00 41 1013.7
20260503193542 58 276 7.0 18.0 0.00 0.00 0.00 42 1013.7